Regional Weather Roundup
Issued by NWS

Home | Current Version | Previous Version | Graphics & Text | Print | Product List | Glossary On
Versions: 1 2 3 4 5 6 7 8 9 10 11 12 13 14 15 16 17 18 19 20 21 22 23 24 25 26 27 28 29 30 31 32 33 34 35 36 37 38 39 40 41 42 43 44 45 46 47 48 49 50
000
ASUS43 KLMK 071110
RWRKY
KENTUCKY REGIONAL WEATHER ROUNDUP
NATIONAL WEATHER SERVICE LOUISVILLE KY
700 AM EDT TUE JUL 07 2015

NOTE "FAIR" INDICATES FEW OR NO CLOUDS BELOW 12,000 FEET
WITH NO SIGNIFICANT WEATHER AND/OR OBSTRUCTIONS TO VISIBILITY.

KYZ001>023-026-027-061>063-070>075-071200-
WESTERN AND SOUTH CENTRAL KENTUCKY

CITY           SKY/WX    TMP DP  RH WIND       PRES   REMARKS
PADUCAH        CLOUDY    74  71  91 SW8G17    29.97R
HENDERSON      CLOUDY    73  70  88 SW13G23   29.96R
OWENSBORO      MOCLDY    76  73  90 SW14      29.98S
HOPKINSVILLE   CLOUDY    73  72  94 SW10      30.01F
BOWLING GREEN  CLOUDY    75  71  87 S8        30.04R
GLASGOW        MOCLDY    73  71  95 S6        30.04S
$$

KYZ024-025-028>034-038-045-046-053-071200-
NORTH CENTRAL KENTUCKY

CITY           SKY/WX    TMP DP  RH WIND       PRES   REMARKS
LOUISVILLE/SDF MOCLDY    76  71  85 SW9G17    29.99R
LOUISVILLE/LOU CLOUDY    76  71  85 S10       30.00R
FORT KNOX      CLOUDY    73  71  93 S12       29.99F
$$

KYZ035>037-039>044-047>052-055>060-089>105-071200-
NORTHEAST KENTUCKY

CITY           SKY/WX    TMP DP  RH WIND       PRES   REMARKS
LEXINGTON      PTCLDY    72  70  93 S9        30.04S
COVINGTON      MOCLDY    73  70  90 S7        29.99S
FRANKFORT      PTCLDY    73  69  87 S8        30.02R
$$

KYZ054-064>069-076>088-106>120-071200-
SOUTHEAST KENTUCKY

CITY           SKY/WX    TMP DP  RH WIND       PRES   REMARKS
JACKSON        MOCLDY    69  66  90 VRB3      30.11R FOG
LONDON         CLEAR     70  65  84 S6        30.11R
SOMERSET       CLEAR     68  68 100 CALM      30.10S
MIDDLESBORO    CLOUDY    66  66 100 CALM      30.14S
MONTICELLO     MOSUNNY   73  72  97 SW5       30.11F
$$




USA.gov is the U.S. government's official web portal to all federal, state and local government web resources and services.